Akron, CO

3:49 AM MDT on May 25, 2018 (GMT -0600)
Akron-Washington County

Weather History for KAKO - November, 2011

Change the Weather History Date:

Monday, November 7, 2011

  Actual Average Record
Temperature  
Mean Temperature 36 °F 42 °F  
Max Temperature 42 °F 54 °F 80 °F (1999)
Min Temperature 30 °F 29 °F 8 °F (1947)
Degree Days  
Heating Degree Days 29    
Month to date heating degree days 201  
Cooling Degree Days 0    
Month to date cooling degree days 0  
Moisture  
Dew Point 27 °F    
Average Humidity 71    
Maximum Humidity 89    
Minimum Humidity 52    
Precipitation  
Precipitation T in 0.02 in 1.13 in (1944)
Month to date precipitation 0.26 0.14  
Year to date precipitation 15.90  
Snow  
Snow 0.00 in - - ()
Snow Depth -    
Sea Level Pressure  
Sea Level Pressure 30.07 in    
Wind  
Wind Speed 7 mph (ESE)    
Max Wind Speed 16 mph    
Max Gust Speed 22 mph    
Visibility 10 miles    
Events      
T = Trace of Precipitation, MM = Missing Value Source: NWS Daily Summary

Daily Weather History Graph

Daily Weather History Graph

Search for Another Location

Airport or City:

Astronomy

Nov. 07, 2011 Rise Set
Actual Time 6:28 AM MST 4:43 PM MST
Civil Twilight 6:00 AM MST 5:12 PM MST
Nautical Twilight 5:27 AM MST 5:44 PM MST
Astronomical Twilight 4:56 AM MST 6:16 PM MST
Moon 2:55 PM MST (11/7) 3:33 AM MST (11/7)
Length of Visible Light 11h 11m
Length of Day
10h 14m
Waxing Gibbous, 92% of the Moon is Illuminated
Nov 7
Waxing Gibbous
Nov 10
Full
Nov 18
Last Quarter
Nov 24
New
Dec 2
First Quarter

Hourly Weather History & Observations

Time (MST) Temp. Windchill Dew Point Humidity Pressure Visibility Wind Dir Wind Speed Gust Speed Precip Events Conditions
12:53 AM 35.1 °F 31.0 °F 19.0 °F 52% 30.02 in 10.0 mi South 4.6 mph - N/A   Clear
1:53 AM 35.1 °F 31.0 °F 19.0 °F 52% 30.01 in 10.0 mi SE 4.6 mph - N/A   Overcast
2:53 AM 32.0 °F 26.4 °F 21.9 °F 66% 30.02 in 10.0 mi SSE 5.8 mph - N/A   Overcast
3:53 AM 32.0 °F 24.8 °F 23.0 °F 69% 30.03 in 10.0 mi SE 8.1 mph - N/A   Overcast
5:53 AM 30.0 °F 24.1 °F 24.1 °F 79% 30.10 in 10.0 mi ESE 5.8 mph - N/A   Overcast
6:53 AM 30.9 °F 26.2 °F 23.0 °F 72% 30.11 in 10.0 mi ESE 4.6 mph - N/A   Overcast
7:53 AM 33.1 °F 26.1 °F 24.1 °F 70% 30.13 in 10.0 mi ESE 8.1 mph - N/A   Overcast
8:53 AM 35.1 °F 27.4 °F 24.1 °F 64% 30.12 in 10.0 mi ESE 10.4 mph - N/A   Overcast
9:53 AM 37.0 °F 31.6 °F 24.1 °F 59% 30.10 in 10.0 mi East 6.9 mph - N/A   Overcast
10:53 AM 37.9 °F 32.7 °F 24.1 °F 57% 30.09 in 10.0 mi East 6.9 mph - N/A   Overcast
11:53 AM 42.1 °F 36.6 °F 26.1 °F 53% 30.04 in 10.0 mi East 9.2 mph - N/A   Mostly Cloudy
12:53 PM 41.0 °F 34.7 °F 26.1 °F 55% 30.02 in 10.0 mi East 10.4 mph - N/A   Overcast
1:53 PM 39.0 °F 32.3 °F 26.1 °F 60% 30.03 in 10.0 mi ESE 10.4 mph - N/A   Overcast
2:53 PM 39.0 °F 32.3 °F 28.0 °F 65% 30.04 in 10.0 mi East 10.4 mph - N/A   Overcast
3:49 PM 37.4 °F 30.8 °F 28.4 °F 70% 30.00 in 10.0 mi ESE 9.2 mph - N/A   Overcast
4:24 PM 37.4 °F 30.8 °F 30.2 °F 75% 30.01 in 10.0 mi ESE 9.2 mph - N/A   Overcast
5:53 PM 36.0 °F 32.1 °F 30.9 °F 82% 30.10 in 10.0 mi East 4.6 mph - N/A   Overcast
6:53 PM 35.1 °F 29.3 °F 30.9 °F 85% 30.11 in 10.0 mi East 6.9 mph - N/A   Overcast
7:30 PM 33.8 °F 27.7 °F 30.2 °F 87% 30.05 in 10.0 mi East 6.9 mph - N/A   Scattered Clouds
7:44 PM 33.8 °F 27.0 °F 30.2 °F 87% 30.05 in 10.0 mi East 8.1 mph - N/A   Mostly Cloudy
7:53 PM 33.1 °F 27.7 °F 30.9 °F 92% 30.12 in 10.0 mi East 5.8 mph - N/A   Mostly Cloudy
9:53 PM 34.0 °F 29.8 °F 30.0 °F 85% 30.10 in 10.0 mi ESE 4.6 mph - 0.00 in   Overcast
10:48 PM 33.8 °F 28.6 °F 30.2 °F 87% 30.06 in 10.0 mi SE 5.8 mph - N/A   Overcast
10:53 PM 34.0 °F 28.0 °F 30.9 °F 89% 30.10 in 10.0 mi ESE 6.9 mph - N/A   Overcast
11:07 PM 33.8 °F 28.6 °F 30.2 °F 87% 30.06 in 10.0 mi ESE 5.8 mph - N/A   Overcast
11:53 PM 33.1 °F 30.0 °F 30.9 °F 92% 30.08 in 9.0 mi East 3.5 mph - N/A   Overcast